SV2BZQ-2 Thessalonik GR current weather conditions

sailwx.info

Wind from 329 at 6 knots gusting 7

Air temperature 11.7° C
Dewpoint 7.2° C

Last reported at 2014-Oct-31 19:37 UTC.
Time now 2014-Nov-01 09:41 UTC

Location: N 40°41' E 022°51'.
View on Google Maps.

See reports from other nearby stations

  
Tides and Currents Weather Stations Pressure Air Temp Water Temp Dewpoint Dewpoint Depression Visibility Wind Speed Wind Dir Waves Ship Positions
date/time (UTC)wind fromknots sea level pressurealtimeterstation pressurevisibilityair tempwater tempwave heightnotes
2014-Oct-31 19:37 329 6 gusting 7 11.7
2014-Oct-31 19:32 302 5 gusting 10 11.7
2014-Oct-31 19:27 313 2 gusting 4 11.7
2014-Oct-31 19:18 302 6 gusting 11 11.7
2014-Oct-31 19:07 316 7 gusting 9 12.2
2014-Oct-31 19:02 317 6 gusting 12 11.7
2014-Oct-31 18:57 279 7 gusting 12 12.2
2014-Oct-31 18:48 337 6 gusting 11 11.7
2014-Oct-31 18:37 319 3 gusting 8 12.2
2014-Oct-31 18:32 327 4 gusting 9 11.7
2014-Oct-31 18:27 298 6 gusting 6 12.2
2014-Oct-31 18:17 302 4 gusting 9 12.2
2014-Oct-31 18:07 307 3 gusting 6 12.8
2014-Oct-31 18:02 292 0 gusting 5 12.8
2014-Oct-31 17:57 277 2 gusting 3 12.8
2014-Oct-31 17:47 334 3 gusting 8 12.8
2014-Oct-31 17:37 328 2 gusting 8 12.8
2014-Oct-31 17:31 340 2 gusting 8 12.8
2014-Oct-31 17:27 340 3 gusting 8 12.8
2014-Oct-31 17:17 345 3 gusting 4 12.8
2014-Oct-31 17:07 337 4 gusting 6 12.8
2014-Oct-31 17:01 336 1 gusting 5 12.8
2014-Oct-31 16:57 019 0 12.8
2014-Oct-31 16:47 003 12.8
2014-Oct-31 16:37 333 0 gusting 1 12.8
2014-Oct-31 16:31 333 12.8
2014-Oct-31 16:27 332 12.8
2014-Oct-31 16:17 332 12.8
2014-Oct-31 16:15 331 12.8
2014-Oct-31 16:07 332 13.3
2014-Oct-31 16:00 332 12.8
2014-Oct-31 15:47 332 13.3
2014-Oct-31 15:45 332 12.8
2014-Oct-31 15:37 332 13.3
2014-Oct-31 15:30 331 12.8
2014-Oct-31 15:17 332 13.3
2014-Oct-31 15:15 332 12.8
2014-Oct-31 15:07 331 13.3
2014-Oct-31 15:01 332 12.8
2014-Oct-31 14:47 331 13.3
2014-Oct-31 14:45 332 12.8
2014-Oct-31 14:37 332 0 gusting 1 13.3
2014-Oct-31 14:29 331 12.8
2014-Oct-31 14:17 328 0 gusting 2 13.3
2014-Oct-31 14:14 328 13.3
2014-Oct-31 14:07 327 13.3
2014-Oct-31 14:00 327 0 gusting 4 12.8
2014-Oct-31 13:47 323 3 gusting 4 13.3
2014-Oct-31 13:44 321 1 gusting 4 13.3
2014-Oct-31 13:37 310 0 gusting 4 13.3
2014-Oct-31 13:30 306 1 gusting 4 13.3
2014-Oct-31 13:17 315 2 gusting 3 13.3
2014-Oct-31 13:14 319 1 gusting 7 13.3
2014-Oct-31 13:07 338 2 gusting 2 13.3
2014-Oct-31 12:58 319 2 gusting 5 13.3
2014-Oct-31 12:47 327 0 gusting 6 13.9
2014-Oct-31 12:43 327 0 gusting 6 13.3
2014-Oct-31 12:37 330 2 gusting 6 13.9
2014-Oct-31 12:29 332 3 gusting 7 13.9
2014-Oct-31 12:17 335 1 gusting 4 13.9
2014-Oct-31 12:14 333 0 gusting 6 13.9
2014-Oct-31 12:07 316 3 gusting 6 14.4
2014-Oct-31 11:58 355 0 gusting 5 13.9
2014-Oct-31 11:47 050 1 gusting 2 14.4
2014-Oct-31 11:42 049 1 gusting 5 14.4
2014-Oct-31 11:37 030 2 gusting 6 15.0
2014-Oct-31 11:28 360 1 gusting 8 14.4
2014-Oct-31 11:17 062 3 gusting 6 15.0
2014-Oct-31 11:12 067 1 gusting 4 14.4
2014-Oct-31 11:07 042 1 gusting 3 15.0
2014-Oct-31 10:58 026 1 gusting 5 14.4
2014-Oct-31 10:47 330 2 gusting 3 15.0
2014-Oct-31 10:42 285 4 gusting 6 14.4
2014-Oct-31 10:37 356 2 gusting 6 15.0
2014-Oct-31 10:28 355 1 gusting 9 14.4
2014-Oct-31 10:17 345 4 gusting 6 15.0
2014-Oct-31 10:12 331 5 gusting 13 14.4
2014-Oct-31 10:07 338 4 gusting 6 15.0
2014-Oct-31 09:57 328 5 gusting 10 15.0
2014-Oct-31 09:47 339 6 gusting 7 14.4
2014-Oct-31 09:42 283 5 gusting 11 14.4
2014-Oct-31 09:37 334 6 gusting 7 14.4
2014-Oct-31 09:27 325 5 gusting 7 14.4
2014-Oct-31 09:17 031 5 gusting 6 13.9
2014-Oct-31 09:11 012 2 gusting 9 13.3
2014-Oct-31 09:07 355 3 gusting 3 13.3
2014-Oct-31 08:57 333 5 gusting 8 13.3
2014-Oct-31 08:56 360 5 gusting 9 12.8
2014-Oct-31 08:47 338 5 gusting 9 13.3
2014-Oct-31 08:41 338 5 gusting 12 12.8
2014-Oct-31 08:37 330 1 gusting 3 12.8
2014-Oct-31 08:27 330 6 gusting 13 12.8
2014-Oct-31 08:26 300 6 gusting 12 12.8
2014-Oct-31 08:17 347 6 gusting 8 12.8
2014-Oct-31 08:10 296 6 gusting 11 12.8
2014-Oct-31 07:57 320 6 gusting 9 12.8
2014-Oct-31 07:55 316 6 gusting 13 12.2
2014-Oct-31 07:47 319 6 gusting 9 12.2
2014-Oct-31 07:41 011 6 gusting 13 12.2
2014-Oct-31 07:27 336 10 gusting 11 12.2
2014-Oct-31 07:25 320 10 gusting 17 11.7
2014-Oct-31 07:17 331 6 gusting 9 11.7
2014-Oct-31 07:09 306 6 gusting 13 11.1
2014-Oct-31 06:57 312 7 gusting 12 11.1
2014-Oct-31 06:54 311 7 gusting 13 10.6
2014-Oct-31 06:47 314 5 gusting 10 11.1
2014-Oct-31 06:39 306 6 gusting 14 10.6
2014-Oct-31 06:27 333 5 gusting 7 10.6
2014-Oct-31 06:24 326 6 gusting 12 10.6
2014-Oct-31 06:17 314 5 gusting 10 10.6
2014-Oct-31 06:09 338 6 gusting 13 10.0
2014-Oct-31 05:57 333 7 gusting 13 10.6
2014-Oct-31 05:53 310 6 gusting 14 10.0
2014-Oct-31 05:47 328 10 gusting 13 10.6
2014-Oct-31 05:38 346 6 gusting 14 10.0
2014-Oct-31 05:27 337 4 gusting 8 10.0
2014-Oct-31 05:24 320 5 gusting 11 10.0
2014-Oct-31 05:17 322 6 gusting 10 10.0
2014-Oct-31 05:08 327 6 gusting 11 10.0
2014-Oct-31 04:57 329 4 gusting 6 10.0
2014-Oct-31 04:53 323 5 gusting 12 10.0
2014-Oct-31 04:47 314 6 gusting 8 10.0
2014-Oct-31 04:37 333 6 gusting 11 10.0
2014-Oct-31 04:27 312 5 gusting 9 10.0
2014-Oct-31 04:22 355 6 gusting 12 10.0
2014-Oct-31 04:17 316 7 gusting 10 10.0
2014-Oct-31 04:08 349 8 gusting 13 10.0
2014-Oct-31 03:57 324 6 gusting 10 10.6
2014-Oct-31 03:52 005 5 gusting 12 10.0
2014-Oct-31 03:47 327 4 gusting 12 10.6
2014-Oct-31 03:37 315 6 gusting 11 10.0
2014-Oct-31 03:27 326 6 gusting 9 10.6
2014-Oct-31 03:21 333 6 gusting 13 10.0
2014-Oct-31 03:17 316 6 gusting 11 10.6
2014-Oct-31 03:07 326 5 gusting 13 10.6
2014-Oct-31 02:57 337 6 gusting 11 10.6
2014-Oct-31 02:51 344 6 gusting 15 10.6
2014-Oct-31 02:47 338 4 gusting 7 10.6
2014-Oct-31 02:37 325 5 gusting 8 10.6
2014-Oct-31 02:27 316 5 gusting 8 10.6
2014-Oct-31 02:21 336 5 gusting 10 10.6
2014-Oct-31 02:17 318 4 gusting 7 10.6
2014-Oct-31 02:07 311 5 gusting 9 10.6
2014-Oct-31 02:06 317 4 gusting 9 10.6
2014-Oct-31 01:57 316 3 gusting 6 10.6
2014-Oct-31 01:51 355 3 gusting 7 10.6
2014-Oct-31 01:47 327 3 gusting 7 11.1
2014-Oct-31 01:37 313 3 gusting 2 11.1
2014-Oct-31 01:36 309 4 gusting 8 10.6
2014-Oct-31 01:27 315 4 gusting 7 11.1
2014-Oct-31 01:20 321 4 gusting 10 11.1
2014-Oct-31 01:07 314 4 gusting 8 11.1
2014-Oct-31 01:05 339 4 gusting 8 11.1
2014-Oct-31 00:57 329 4 gusting 10 11.1
2014-Oct-31 00:50 333 6 gusting 10 11.1
2014-Oct-31 00:37 330 3 gusting 8 11.1
2014-Oct-31 00:35 015 4 gusting 9 10.6
2014-Oct-31 00:27 319 5 gusting 8 11.1
2014-Oct-31 00:19 306 4 gusting 7 10.6
2014-Oct-31 00:09 314 4 gusting 7 11.1
2014-Oct-31 00:05 303 4 gusting 9 11.1
2014-Oct-30 23:56 303 4 gusting 6 11.1
2014-Oct-30 23:49 302 3 gusting 9 11.1
2014-Oct-30 23:37 318 4 gusting 4 11.7
2014-Oct-30 23:34 318 3 gusting 8 11.1
2014-Oct-30 23:27 324 6 gusting 5 11.7
2014-Oct-30 23:20 332 5 gusting 12 11.1
2014-Oct-30 23:07 301 2 gusting 3 11.7
2014-Oct-30 23:03 324 3 gusting 7 11.7
2014-Oct-30 22:57 313 1 gusting 4 12.2
2014-Oct-30 22:48 333 2 gusting 7 11.7
2014-Oct-30 22:37 308 5 gusting 6 12.2
2014-Oct-30 22:34 323 5 gusting 10 12.2
2014-Oct-30 22:27 311 6 gusting 7 12.2
2014-Oct-30 22:18 318 4 gusting 7 12.2
2014-Oct-30 22:07 314 3 gusting 5 12.2
2014-Oct-30 22:03 309 3 gusting 8 12.2
2014-Oct-30 21:57 310 3 gusting 6 12.8
2014-Oct-30 21:48 328 4 gusting 9 12.2
2014-Oct-30 21:37 293 2 gusting 4 12.8
2014-Oct-30 21:33 286 2 gusting 7 12.2
2014-Oct-30 21:27 320 2 gusting 3 12.8
2014-Oct-30 21:18 332 0 gusting 6 12.2
2014-Oct-30 21:07 324 1 gusting 2 12.2
2014-Oct-30 21:02 319 12.2
2014-Oct-30 20:57 319 1 gusting 2 12.2
2014-Oct-30 20:47 336 2 gusting 5 12.2
2014-Oct-30 20:37 311 2 gusting 6 12.2
2014-Oct-30 20:32 318 2 gusting 5 12.2
2014-Oct-30 20:27 313 3 gusting 4 12.2
2014-Oct-30 20:17 320 4 gusting 5 12.2
2014-Oct-30 20:07 326 3 gusting 5 12.8
2014-Oct-30 20:01 309 0 gusting 4 12.2
2014-Oct-30 19:57 309 1 gusting 1 12.8
2014-Oct-30 19:47 307 1 gusting 2 13.3
2014-Oct-30 19:37 308 3 gusting 3 13.3
2014-Oct-30 19:32 322 1 gusting 5 13.3
2014-Oct-30 19:27 311 1 gusting 3 13.3
2014-Oct-30 19:17 306 3 gusting 3 13.9
2014-Oct-30 19:07 322 2 gusting 4 13.9
2014-Oct-30 19:01 337 2 gusting 4 13.9
2014-Oct-30 18:57 317 0 gusting 3 13.9
2014-Oct-30 18:47 327 2 gusting 5 13.9
2014-Oct-30 18:37 327 1 gusting 3 13.9
2014-Oct-30 18:30 348 0 gusting 4 13.9
2014-Oct-30 18:17 328 3 gusting 5 14.4
2014-Oct-30 18:15 310 3 gusting 6 13.9
2014-Oct-30 18:07 331 3 gusting 7 14.4
2014-Oct-30 18:01 313 2 gusting 5 14.4
2014-Oct-30 17:47 335 2 gusting 6 14.4
2014-Oct-30 17:37 340 4 gusting 6 14.4
2014-Oct-30 17:30 326 3 gusting 9 14.4
2014-Oct-30 17:17 337 4 gusting 8 15.0
2014-Oct-30 17:07 328 5 gusting 9 15.0
2014-Oct-30 16:57 327 4 gusting 6 15.0
2014-Oct-30 16:47 317 4 gusting 8 15.0
2014-Oct-30 16:44 299 4 gusting 9 15.0
2014-Oct-30 16:37 319 5 gusting 7 15.0
2014-Oct-30 16:27 331 4 gusting 6 15.6
2014-Oct-30 16:17 325 6 gusting 7 15.6
2014-Oct-30 16:14 344 5 gusting 11 15.0
2014-Oct-30 16:07 327 3 gusting 8 15.6
2014-Oct-30 15:59 306 5 gusting 10 15.6
2014-Oct-30 15:47 318 4 gusting 8 16.1
2014-Oct-30 15:44 327 4 gusting 9 15.6
2014-Oct-30 15:37 333 4 gusting 6 16.1
2014-Oct-30 15:29 315 3 gusting 9 16.1
2014-Oct-30 15:17 323 4 gusting 7 16.7
2014-Oct-30 15:07 302 0 gusting 4 17.2
2014-Oct-30 14:58 326 3 gusting 8 17.2
2014-Oct-30 14:47 306 4 gusting 6 17.8
2014-Oct-30 14:43 317 4 gusting 11 17.2
2014-Oct-30 14:37 309 5 gusting 11 17.8
2014-Oct-30 14:28 346 4 gusting 10 17.8
2014-Oct-30 14:17 301 4 gusting 7 18.3
2014-Oct-30 14:13 286 2 gusting 6 18.3
2014-Oct-30 14:07 310 0 gusting 1 18.3
2014-Oct-30 13:57 326 4 gusting 5 18.3
2014-Oct-30 13:47 302 2 gusting 3 18.3
2014-Oct-30 13:42 307 2 gusting 8 18.3
2014-Oct-30 13:37 282 5 gusting 6 18.3
2014-Oct-30 13:27 314 1 gusting 9 18.3
2014-Oct-30 13:17 268 3 gusting 6 18.3
2014-Oct-30 13:13 326 1 gusting 8 18.3
2014-Oct-30 13:07 290 2 gusting 3 18.3
2014-Oct-30 12:58 275 3 gusting 7 17.8
2014-Oct-30 12:47 277 6 gusting 9 18.3
2014-Oct-30 12:42 326 3 gusting 6 17.8
2014-Oct-30 12:37 313 4 gusting 5 18.3
2014-Oct-30 12:27 292 4 gusting 7 17.8
2014-Oct-30 12:17 296 2 gusting 3 18.3
2014-Oct-30 12:11 290 2 gusting 9 17.8
2014-Oct-30 12:07 305 3 gusting 6 18.3
2014-Oct-30 11:57 298 2 gusting 7 17.8
2014-Oct-30 11:47 291 1 gusting 0 17.8
2014-Oct-30 11:41 273 5 gusting 10 17.8
2014-Oct-30 11:37 290 3 gusting 3 17.8
2014-Oct-30 11:27 324 4 gusting 6 17.8
2014-Oct-30 11:17 300 3 gusting 3 17.2
2014-Oct-30 11:11 345 4 gusting 10 17.2
2014-Oct-30 11:07 293 3 gusting 7 17.2
2014-Oct-30 10:57 315 6 gusting 8 17.2
2014-Oct-30 10:55 315 4 gusting 10 16.7
2014-Oct-30 10:47 300 6 gusting 8 16.7
2014-Oct-30 10:40 314 5 gusting 11 16.7
2014-Oct-30 10:27 306 3 gusting 9 16.7
2014-Oct-30 10:25 289 5 gusting 10 16.1
2014-Oct-30 10:17 308 7 gusting 10 16.1
2014-Oct-30 10:10 343 5 gusting 10 16.1
2014-Oct-30 09:57 299 5 gusting 7 16.1
2014-Oct-30 09:55 287 6 gusting 9 15.6
2014-Oct-30 09:47 304 7 gusting 11 16.1
2014-Oct-30 09:39 335 6 gusting 13 15.6
2014-Oct-30 09:27 309 9 gusting 13 15.6
2014-Oct-30 09:25 317 6 gusting 13 15.6
2014-Oct-30 09:17 315 6 gusting 8 15.6
2014-Oct-30 09:07 322 6 gusting 8 15.6